Weather in Zapadnoye Konchezero

Russia / Republic of Karelia     62°06′28″N   34°00′32″E
В апреле 2022 года жителям России запретили посещать сайт meteo.paraplan.net по решению Генеральной прокуратуры. Аудитория сайта уменьшилась в 10 раз. Владельцы сайта не видят смысла в поддержке погодного сервера в таких условиях. Сайт будет закрыт в октябре.
temp.,
°C
wind,
m/s
gust,
m/s
humid.,
%
clouds,
%
prec.,
mm/h
press.,
hPa
HPBL,
m
4 october, tue
tue400:00+5ne51395100 2.1 1006732
03:00+7ene41198100 5.4 1004651
06:00+8sse389513 0.3 1005428
09:00+7se3109293 0.3 1007469
12:00+10se488792 0.0 1007744
15:00+10ese4987100 0.1 1008568
18:00+9ese3792100 0.1 1009307
21:00+9ese2893100 0.4 1009334
5 october, wed
wed500:00+8e289677 0.0 1009259
03:00+8ese269743 0.0 1009207
06:00+7s139780 0.0 101076
09:00+8ssw138898 0.0 1010167
12:00+9w1277100 0.0 1010491
15:00+8sw1286100 0.0 1010121
18:00+7ssw118899 0.0 101116
21:00+6sw229230 0.0 101150
6 october, thu
thu600:00+4ssw22963 0.0 101249
03:00+5s269498 0.0 1011166
06:00+6s3994100 0.0 1010336
09:00+8s4128995 0.1 1008474
12:00+10s51488100 0.0 1006630
15:00+10ssw51395100 0.4 1003849
18:00+10ssw51393100 0.1 1000673
21:00+11sw51295100 4.6 997887
7 october, fri
fri700:00+8nw5147877 3.6 999944
03:00+7sw41190100 3.8 1001417
06:00+8wsw51185100 0.0 10021056
09:00+9wsw51283100 0.0 1002926
12:00+11w5117485 0.0 10041219
15:00+11wsw5107731 0.2 10061010
18:00+9w5108193 0.0 1008883
21:00+7wsw4129099 0.0 1010493
8 october, sat
sat800:00+7sw41292100 0.0 1011441
03:00+8sw41293100 0.0 1010669
06:00+9ssw51291100 0.0 1009721
09:00+10ssw51392100 0.3 1008888
12:00+10ssw61283100 0.0 1007988
15:00+11ssw61374100 0.0 10051106
18:00+10ssw6147746 0.0 10041103
21:00+10ssw61485100 0.6 10021095